Precipitable_Water
0.93 0.98 0.97 1.00 1.03 0.97 0.98 1.05 1.23 1.25 1.23 1.27 1.25 1.22 1.19 1.14 1.05 1.02 0.98 0.90 0.98 0.93
0.99 1.02 1.07 1.12 1.15 1.11 1.05 1.09 1.13 1.13 1.15 1.17 1.18 1.16 1.12 1.07 1.01 0.97 0.96 0.93 0.90 0.85
0.96 1.06 1.13 1.17 1.14 1.15 1.16 1.10 1.08 1.07 1.06 1.10 1.14 1.14 1.14 1.05 0.98 0.94 0.92 0.93 0.87 0.79
1.04 1.09 1.16 1.23 1.26 1.24 1.27 1.19 1.17 1.12 1.06 1.08 1.09 1.11 1.08 0.99 0.96 0.90 0.89 0.86 0.82 0.81
1.13 1.21 1.27 1.25 1.33 1.38 1.36 1.22 1.21 1.19 1.09 1.07 1.06 1.05 0.99 0.95 0.93 0.88 0.83 0.84 0.74 0.79
1.15 1.24 1.24 1.23 1.32 1.16 1.10 1.23 1.22 1.15 1.10 1.08 1.03 0.97 0.97 0.96 0.92 0.86 0.84 0.81 0.74 0.77
1.17 1.14 1.17 1.25 1.28 1.13 1.04 1.11 1.19 1.15 1.11 1.09 1.02 0.97 0.95 0.93 0.88 0.84 0.80 0.76 0.72 0.75
1.03 1.06 1.18 1.18 1.13 1.11 1.11 1.15 1.13 1.11 1.08 1.02 0.96 0.93 0.90 0.86 0.79 0.70 0.71 0.71 0.72 0.73
1.07 1.13 1.13 1.11 1.08 1.05 1.04 1.06 1.08 1.01 0.98 0.92 0.90 0.90 0.82 0.72 0.69 0.71 0.67 0.69 0.71 0.72
1.08 1.04 1.01 1.00 0.98 0.98 1.01 1.03 0.99 0.96 0.92 0.87 0.79 0.71 0.70 0.72 0.70 0.68 0.67 0.66 0.65 0.66
0.96 0.92 0.95 0.95 0.97 0.98 0.96 0.96 0.93 0.86 0.76 0.68 0.68 0.70 0.70 0.69 0.67 0.64 0.66 0.67 0.64 0.51
0.94 0.94 0.94 0.92 0.95 0.96 0.92 0.79 0.70 0.67 0.63 0.62 0.65 0.66 0.64 0.63 0.63 0.62 0.58 0.52 0.45 0.43
0.89 0.90 0.90 0.90 0.85 0.73 0.66 0.62 0.60 0.56 0.57 0.58 0.59 0.61 0.62 0.61 0.57 0.49 0.44 0.45 0.42 0.40
0.84 0.84 0.77 0.66 0.63 0.60 0.58 0.56 0.52 0.52 0.54 0.56 0.58 0.59 0.58 0.53 0.47 0.44 0.42 0.40 0.36 0.31
Wind_Speed
21 19 20 20 20 20 19 18 17 20 22 25 25 23 24 25 25 25 26 26 27 27
23 24 23 23 21 22 21 20 19 20 21 21 23 24 25 25 25 26 26 26 27 28
28 28 28 27 26 25 24 23 22 21 21 22 23 24 25 25 25 26 27 27 27 28
30 30 31 31 31 29 27 25 24 23 23 24 24 25 25 25 25 26 27 27 28 29
26 27 28 28 28 33 29 24 25 23 23 24 25 25 26 26 27 27 27 28 29 31
26 25 26 26 23 19 25 26 26 25 24 25 25 26 27 28 28 29 29 29 30 31
25 26 26 26 26 23 25 26 26 26 25 26 26 27 27 27 27 28 29 31 31 32
26 25 25 24 24 25 26 26 25 26 26 26 27 28 27 28 27 28 29 31 32 32
26 25 24 23 22 22 23 24 25 26 26 27 28 27 27 28 28 29 30 31 31 33
24 24 23 22 22 22 23 24 25 26 27 26 27 27 27 27 28 30 30 32 33 34
23 23 23 23 22 22 23 24 25 25 26 26 26 26 26 27 29 30 31 33 33 34
24 24 24 23 24 24 24 24 24 25 25 25 25 26 27 29 30 31 32 32 34 35
24 24 25 25 24 24 24 25 25 25 25 26 27 28 29 31 31 32 33 34 36 37
23 23 23 23 24 24 24 25 25 25 26 27 28 30 31 32 33 34 35 36 38 39
Wind_Direction
225 227 230 235 239 240 242 245 241 239 244 244 249 255 260 266 267 267 272 275 277 277
233 234 237 239 241 241 243 243 245 244 246 249 251 258 262 268 266 269 273 276 279 281
241 241 242 242 243 243 244 245 246 248 251 253 257 261 265 268 269 271 275 278 279 282
243 245 246 245 247 246 244 245 248 251 254 257 260 263 265 268 270 274 275 277 280 285
244 247 251 252 260 244 240 249 251 255 257 260 262 264 266 269 272 274 276 276 284 285
248 250 253 253 255 234 246 251 254 255 258 261 264 265 268 272 274 276 277 280 285 285
252 253 253 251 252 253 254 256 253 256 261 263 265 268 272 273 275 276 278 282 286 287
252 252 251 250 252 257 257 253 254 259 263 265 268 270 272 273 274 277 280 284 287 288
250 250 250 249 251 253 254 254 257 262 264 266 269 270 271 273 276 279 283 285 287 289
247 247 247 248 249 253 255 257 260 264 266 267 269 270 273 275 279 282 284 287 289 290
246 246 246 248 251 255 259 261 264 264 265 267 269 271 274 278 281 284 286 288 289 291
246 246 247 249 253 258 260 262 264 266 267 268 269 272 276 279 282 285 287 288 290 291
248 247 249 253 254 258 261 264 266 267 269 270 271 275 278 281 283 285 287 289 291 293
248 247 248 251 256 260 263 264 265 268 270 273 275 278 280 282 284 286 288 290 292 293